Flag for Germany Weather past 2 weeks in Magdeburg, Saxony-Anhalt, Germany

Now
58 °F

Overcast.


Feels Like: 58 °F
Forecast: 53 / 72 °F
Wind: 2 mph from North

Location: Magdeburg

Current Time: Sep 3, 2014 at 9:57:16 AM

Latest Report: Sep 3, 2014 at 9:00 AM


Visibility: 19 mi

Pressure: 30.29 "Hg

Humidity: 81%

Dew point: 52 °F

Location of MagdeburgLocation

Historic Weather in Magdeburg — Graph

°F

Magdeburg temperature yesterday

Maximum temperature yesterday: 67 °F (at 4:00 PM)
Minimum temperature yesterday: 57 °F (at 10:00 PM)
Average temperature yesterday: 61 °F

Past Weeks' High & Low Weather Summary

 TemperatureHumidityPressure
High75 °F (Aug 28, 6:00 PM)98% (Sep 1, 6:00 AM)30.29 "Hg (Sep 1, 6:00 AM)
Low45 °F (Aug 25, 7:00 AM)31% (Aug 28, 4:00 PM)29.72 "Hg (Aug 26, 8:00 AM)
Average59 °F74%29.97 "Hg
* Reported Aug 19 9:00 AM — Sep 3 9:00 AM, Magdeburg, Weather by CustomWeather, © 2014

Note: Actual official high and low records may vary slightly from our data, if they occured in-between our weather recording intervals... More about our weather records

Advertising

Magdeburg weather history for previous 24 hours

 ConditionsComfort  
Time TempWeatherWind HumidityBarometerVisibility
9:00 AM
Sep 3
58 °FOvercast.2 mph81%30.29 "Hg19 mi
8:00 AM55 °FOvercast.2 mph88%30.29 "Hg19 mi
7:00 AM55 °FOvercast.2 mph89%30.28 "Hg22 mi
6:00 AM55 °FOvercast.1 mph92%30.27 "Hg16 mi
4:00 AM53 °FOvercast.1 mph94%30.27 "Hg9 mi
3:00 AM53 °FOvercast.1 mph96%30.27 "Hg11 mi
2:00 AM52 °FPassing clouds.1 mph94%30.28 "Hg7 mi
1:00 AM54 °FPassing clouds.1 mph92%30.28 "Hg16 mi
12:00 AM56 °FPassing clouds.1 mph88%30.28 "Hg19 mi
11:00 PM
Sep 2
59 °FOvercast.2 mph82%30.27 "Hg25 mi
10:00 PM57 °FPassing clouds.1 mph91%30.25 "Hg19 mi
9:00 PM58 °FPassing clouds.1 mph88%30.24 "Hg22 mi
8:00 PM61 °FPassing clouds.1 mph78%30.22 "Hg31 mi
7:00 PM65 °FSunny.2 mph69%30.21 "Hg31 mi
6:00 PM66 °FOvercast.2 mph64%30.19 "Hg34 mi
4:00 PM67 °FPartly sunny.3 mph63%30.19 "Hg31 mi
3:00 PM64 °FOvercast.2 mph69%30.19 "Hg25 mi
2:00 PM62 °FOvercast.3 mph77%30.19 "Hg19 mi
1:00 PM60 °FLow clouds.3 mph89%30.17 "Hg10 mi
12:00 PM60 °FLow clouds.5 mph92%30.16 "Hg7 mi
10:00 AM60 °FLow clouds.2 mph93%30.14 "Hg9 mi
9:00 AM60 °FLow clouds.2 mph94%30.12 "Hg7 mi
Weather by CustomWeather, © 2014

See weather overviewHow to use our weather pages